Tracking 28790 objects as of 19-Apr-2024
HD Live streaming from Space Station
objects crossing your sky now

COSMOS 1867 COOLANT

Track COSMOS 1867 COOLANT now!
10-day predictions


NORAD ID: 39647
Int'l Code: 1987-060Q
Perigee: 776.1 km
Apogee: 806.3 km
Inclination: 65.0 °
Period: 100.5 minutes
Semi major axis: 7162 km
RCS: Unknown
Launch date: July 10, 1987
Source: Commonwealth of Independent States (former USSR) (CIS)
Launch site: TYURATAM MISSILE AND SPACE COMPLEX (TTMTR)

Note: This is SATELLITE DEBRIS
Your satellite tracking list
Your tracking list is empty




NASA's NSSDC Master Catalog

Two Line Element Set (TLE):
1 39647U 87060Q   24109.52106628  .00001217  00000-0  48578-3 0  9992
2 39647  65.0096  75.0799 0021105 272.5256  87.3412 14.32293825524276
Source of the keplerian elements: AFSPC